Regional Weather Roundup
Issued by NWS Northern Indiana

Home | Current Version | Previous Version | Text Only | Print | Product List | Glossary Off
Versions: 1 2 3 4 5 6 7 8 9 10 11 12 13 14 15 16 17 18 19 20 21 22 23 24 25 26 27 28 29 30 31 32 33 34 35 36 37 38 39 40 41 42 43 44 45 46 47 48 49 50

000
ASUS43 KIWX 201301
RWRIWX

KIWX WEATHER ROUNDUP
NATIONAL WEATHER SERVICE NORTHERN INDIANA
900 AM EDT FRI OCT 20 2017

NOTE: "FAIR" INDICATES FEW OR NO CLOUDS BELOW 12,000 FEET WITH NO
SIGNIFICANT WEATHER AND/OR OBSTRUCTIONS TO VISIBILITY.

* THESE STATIONS ARE NOT UNDER NWS QUALITY CONTROL. THEY ALSO MAY NOT
  REPORT WEATHER SUCH AS PRECIPITATION OR FOG.

INZ001>027-201400-
NORTHERN INDIANA

CITY           SKY/WX    TMP DP  RH WIND       PRES   REMARKS
GARY*          PTCLDY    57  50  77 S7        30.20R
MICHIGAN CITY* CLEAR     55  48  76 S6        30.22R
KNOX*          CLEAR     50  48  93 S5        30.22S
SOUTH BEND     CLEAR     48  43  82 CALM      30.24R
ELKHART*       CLEAR     46  41  81 CALM      30.24R
GOSHEN         CLEAR     50  43  77 SE5       30.25R
MONTICELLO*    CLEAR     53  52  95 S3        30.24R
FORT WAYNE     MOSUNNY   48  44  86 CALM      30.28R
PERU/GRISSOM   CLEAR     52  52  98 S5        30.25R

$$
INZ028>050-201400-
CENTRAL INDIANA

CITY           SKY/WX    TMP DP  RH WIND       PRES   REMARKS
LAFAYETTE      CLEAR     52  52 100 CALM      30.24S
KOKOMO*        CLEAR     52  50  93 S5        30.27R FOG
MUNCIE*        SUNNY     56  51  84 SW3       30.28R
INDIANAPOLIS   PTCLDY    52  50  93 SE5       30.28R

$$
MIZ043>046-050>051-056>058-064>065-071>073-077>080-201400-
SOUTHWEST LOWER MICHIGAN

CITY           SKY/WX    TMP DP  RH WIND       PRES   REMARKS
BATTLE CREEK   CLEAR     51  40  65 S6        30.24R
BENTON HARBOR  CLEAR     52  44  74 SE5       30.21R
COLDWATER*     CLEAR     51  37  58 CALM      30.26R
HILLSDALE*     SUNNY     46  32  57 S7        30.27R
HOLLAND        CLEAR     51  42  71 S5        30.20S
GRAND RAPIDS   PTCLDY    52  40  63 S6        30.21R
KALAMAZOO      CLEAR     50  38  63 S6        30.24R
STURGIS*       CLEAR     50  40  67 SE5       30.24S
THREE RIVERS*  FAIR      50  41  69 S3        30.25R

$$
OHZ001>008-015>018-024>025-201400-
NORTHWEST OHIO

CITY           SKY/WX    TMP DP  RH WIND       PRES   REMARKS
DEFIANCE       SUNNY     44  41  89 CALM      30.29R
FINDLAY        CLOUDY    47  43  86 S3        30.29R
TOLEDO EXPRESS MOSUNNY   44  41  89 CALM      30.29R
TOLEDO METCALF SUNNY     46  40  79 CALM      30.30R
LIMA           SUNNY     51  50  96 SE3       30.29R

$$
AND FOR LAKE MICHIGAN COASTAL AND OPEN LAKE BUOY OBSERVATIONS

STATION/POSITION TEMP    WIND        PRES    VSBY  WAVE
                 AIR SEA DIR/SP/G                  HT/PER
                 (F)     (DEG/KT/KT) (MB)    (MI)  (FT/S)
CALUMET HARBOR    56     180/  6/  7 1021.2R
MICHIGAN CITY     57     150/ 13/ 15   N/A
BURNS HARBOR      57     180/ 12/ 15 1022.7S
SAINT JOSEPH      54     150/  4/  7 1023.4
SOUTH LAKE BUOY   62 61  190/ 14/ 16 1021.2          2/ 4
4 MI NW BRIDGMAN  58 58  170/ 10/ 12 1023.0R         1/ 2
MICHIGAN CITY     57 58  190/ 12/ 14   N/A           1/ 2

$$
&&




USA.gov is the U.S. government's official web portal to all federal, state and local government web resources and services.